cliquez pour ajouter le site Runraid à vos favoris  English version (google)  Retour à l'accueil Ecrire à l'auteur du site Runraid : Michel Jourdan



Les prochaines courses


Les derniers résultats

cliquez pour visualiser la page complète relatant la chronologie des éruptions du Piton de la Fournaise
éruptions Piton de la Fournaise


Ile de La Réunion

 Diagonale des Fous 

Ecrire au créateur du site : Michel Jourdan
Contact


-

Pour consulter le palmarès d'un coureur, un clic sur son nom !

Vous avez des remarques, corrections, ... sur ces résultats , un clic sur --> pour me transmettre toute information concernant les classements


- 2019 : classement des 500 finishers
Place Nom Temps Cat. Club Sexe Clt/cat.
Place Nom Temps Cat. Club Sexe Clt/cat.
1 SHEN Jiasheng 10:22:02 SEM Columbia M 0
2 LIANG Jing 10:35:50 SEM M 0
3 ZHANG Zhenlong 10:41:46 SEM M 0
4 DENG Guomin 10:52:19 SEM salomon / salomon / salom M 0
5 HAWKER Scott 10:53:34 SEM M 0
6 GRINIUS Gediminas 11:11:10 VIBRAM / Team VIBRAM M 0
7 LI Kuo 11:40:06 SEM Columbia M 0
8 LU Yangchun 11:43:20 SEF Adidas F 1ere F 0
9 LI Bo 11:47:19 SEM Hoka one one & vibram M 0
10 O'LEARY Paddy 11:51:37 SEM The North Face / SF Runni M 0
11 WONG Ho Chung 11:52:39 SEM The North Face Adventure M 0
12 ELLIS John 12:02:16 M 0
13 QIN Yanzhong 12:17:24 SEM M 0
14 XIANG Fuzhao 12:17:32 SEF F 2 F 0
15 OLSON Tim 12:39:30 SEM Adidas Terrex M 0
16 CHEN Chaojiang 12:40:54 SEM M 0
17 YANG Guangmei 12:43:19 SEF F 3 F 0
18 ZONG Liangfei 12:45:11 SEM M 0
19 MA Lin 12:46:16 SEM M 0
20 ROBERTSHAW Thomas 12:46:55 Ching Long / The North Fa M 0
21 LI Junfeng 12:50:26 SEM M 0
22 SHERPA Sange 12:51:33 SEM Team instinct M 0
23 YANG Fan 12:53:41 SEM M 0
24 TSANG Chun Kit 12:56:33 SEM Vibram M 0
25 ONIFA John Ray 13:00:00 SEM The North face adventure M 0
26 XU Meiling 13:02:24 SEF F 4 F 0
27 MITYAEVA Ekaterina 13:03:46 SEF F 5 F 0
28 CHAN Wai Tik 13:08:37 SEM M 0
29 IINO Wataru 13:14:43 M 0
30 NUNIGE Jasmin 13:19:21 F 6 F 0
31 YEUNG Chi Shing 13:22:47 M 0
32 LI Jie 13:24:40 M 0
33 CHEN Jie 13:25:24 M 0
34 YU Yunhui 13:34:34 M 0
35 YU Ding 13:34:34 SEM M 0
36 ONYSCHENKO Bogdan 13:43:13 M 0
37 GU Taojun 13:45:47 SEM M 0
38 NIKOLOVA Mariya 13:51:08 SEF F 7 F 0
39 ROBINSON Jason 13:58:24 MKRC M 0
40 LEWANDOWSKI Cory 13:58:36 SEM Taiwan Beast Runners M 0
41 LEUNG Ying Suet 14:01:22 MIZUNO F 8 F 0
42 ATANASOV Konstantin 14:01:32 SEM M 0
43 PARK Byeonggwon 14:03:32 SEM M 0
44 WONG Ka Wai 14:05:42 M 0
45 LUO Tao 14:13:18 SEM M 0
46 LIU Chao 14:15:04 SEM Tecnica / Vibram M 0
47 COUPER Timothy 14:15:06 SEM M 0
48 LI Tiejun 14:17:37 M 0
49 YAMANATH Limbu 14:18:09 M 0
50 ISAAC Leslie 14:19:34 Cartilage Carnage M 0
51 ZENG Zhi Jun 14:26:28 SEM M 0
52 LAM Shing Yip 14:27:56 Salomon HK M 0
53 LIU An Shi 14:28:52 SEM M 0
54 LEUNG Chun Keung 14:29:20 Salomon HK M 0
55 CLIFTON Lou 14:33:33 Salomon, Summit Gear, Tai F 9 F 0
56 GRAHAM Andrew 14:37:37 Cartilage Carnage M 0
57 HOECHE Marcel 14:43:58 SEM Adidas Terrex M 0
58 THEODOSIS Dennis 14:48:30 M 0
59 KRZYSZCZAK Jaromir 14:49:18 SEM M 0
60 BROCHARD Blaise 14:49:28 M 0
61 ZHAO Huayi 14:50:24 SEM M 0
62 CANT Lucy 14:50:53 SEF F 10 F 0
63 ABAHAN Sandi Menchi 14:53:03 SEF F 11 F 0
64 CHAU Ip Yan 14:53:14 M 0
65 ZHOU Qipeng 14:54:36 M 0
66 LI Haifeng 14:54:37 M 0
67 VRIENS Lodewijk 14:54:50 SEM M 0
68 CHOI Pui Nang 14:55:07 The Peak Hunter / CTRun M 0
69 GBAGUIDI Freddy 14:56:27 SEM M 0
70 PHILLIPS James 14:58:04 SEM M 0
71 NG Chun Kit 14:59:53 SEM M 0
72 GUO Qingsong 15:00:21 SEM M 0
73 PARK James 15:02:08 SEM M 0
74 AN Han 15:03:34 SEF F 12 F 0
75 WANG Gang 15:08:01 SEM M 0
76 ZHOU Yuan 15:08:13 SEM M 0
77 HALL Cordis 15:09:14 SEM Adidas infinite trails M 0
78 XU Linju 15:09:25 SEF F 13 F 0
79 FENG Wei 15:09:39 M 0
80 DIMITROV Ivan 15:09:48 SEM M 0
81 WEN Danyu 15:12:03 SEF F 14 F 0
82 TANG Lei 15:12:30 SEM M 0
83 WANG Xiaolin 15:14:23 M 0
84 EBERLY Josh 15:14:55 SEM Adidas Terrex M 0
85 LIAO Zheng Chao 15:15:28 SEM M 0
86 OKUNOMIYA Shunsuke 15:19:31 M 0
87 LAU Chun Man 15:20:16 SEM M 0
88 RITCEY Jeremy 15:20:16 Salomon HK M 0
89 CHEUNG Kei Fung Kevin 15:22:56 M 0
90 HALL Abby 15:23:08 SEF adidas TERREX F 15 F 0
91 MCFLYNN Brian 15:24:30 SEM M 0
92 LEE Kwong Ho 15:27:05 SEM M 0
93 CRASEZ Jean Michel 15:29:09 M 0
94 LAU Nicole 15:29:17 F 16 F 0
95 CHEN Gang 15:30:01 SEM M 0
96 HUI Yue Yat Michael 15:30:57 SEM M 0
97 BONNARD Julien 15:31:17 Overstim.s Asia M 0
98 XIAO Riguang 15:31:52 SEM M 0
99 KWAN Wai Chun 15:31:55 SEM Team Beyond Limits / The M 0
100 YANG Feifei 15:32:30 SEF F 17 F 0
101 WONG Chun Ho 15:34:20 SEM M 0
102 LEE Peter 15:35:36 Team 2xu M 0
103 LAN Xijiang 15:35:52 SEM M 0
104 ?CIUBA Aneta 15:36:46 SEF F 18 F 0
105 RAN Maoye 15:37:50 SEM M 0
106 KENNEDY Matthew 15:38:39 M 0
107 CHEN Erfen 15:39:05 SEF F 19 F 0
108 WU Ping 15:39:05 SEM M 0
109 CHAN Man Ha 15:39:52 SEF F 20 F 0
110 HUANG Mingxing 15:40:57 SEM M 0
111 MAN Ka Ming 15:41:00 SEM M 0
112 LAW Chor Kin 15:41:25 Vibram M 0
113 KWONG Hoi Tik 15:41:36 M 0
114 KWOK Kam Chuen 15:41:46 M 0
115 LING Hongyin 15:42:27 SEF F 21 F 0
116 KWONG Man Hei Stanley 15:42:35 SEM M 0
117 ZHANG Jiaquan 15:43:21 SEM M 0
118 HO Jcy 15:43:47 F 22 F 0
119 LEHKONEN Henri 15:44:20 SEM M 0
120 CHAN Chun Kit 15:44:51 SEM Columbia HK / The Peak Hu M 0
121 LAU Wing Yan 15:44:51 SEF Columbia HK F 23 F 0
122 YAN Hongming 15:45:32 F 24 F 0
123 CHAN Wai Yiu 15:46:25 M 0
124 LONGO David 15:46:45 SEM M 0
125 TAM Hoi Leung 15:46:51 M 0
126 HO Patrick 15:46:51 M 0
127 KIMURA Hayato 15:47:04 SEM M 0
128 YUAN Xiangyang 15:47:45 M 0
129 LEUNG Andy 15:48:28 SEM M 0
130 KIN KA Lam 15:48:36 M 0
131 WU Zhijun 15:48:43 SEM M 0
132 KENT Justin 15:49:33 M 0
133 KWOK Man Ching Grace 15:50:45 F 25 F 0
134 GU Linhai 15:51:20 M 0
135 YU Yue 15:51:33 Vibram trailrunning team M 0
136 LI Mui Chun 15:51:51 F 26 F 0
137 CHAN Ho Yin 15:52:04 SEM M 0
138 LAI Ka Chon 15:53:18 SEM M 0
139 SHAM Sze Wan 15:53:57 F 27 F 0
140 SILAPA ARIYA Perawat 15:56:17 SEM ALTRA ENDURANCE THAILAND M 0
141 PAJARO Paolo 15:58:36 M 0
142 TSE Wing Hong 15:59:36 M 0
143 BACHMANN Peter 16:01:27 M 0
144 LAM Ka Wai 16:01:53 M 0
145 LYNN Kurt 16:02:25 M 0
146 WANG Jianhua 16:09:41 M 0
147 YANG Jun 16:16:53 SEF F 28 F 0
148 GAO Sihai 16:16:53 M 0
149 ZHAO Jiaju 16:19:27 SEM M 0
150 FATON Laurent 16:22:39 M 0
151 CARVALHO Bruno 16:27:13 SEM M 0
152 MING Lang 16:28:11 M 0
153 JAY Jay 16:28:13 M 0
154 TSE Tze Wai Karen 16:32:47 SEF Salomon Hong Kong / Salom F 29 F 0
155 LAQUA Nick 16:34:45 M 0
156 CHAN Chung Yin Vincent 16:36:35 M 0
157 YOW Tracy 16:36:55 F 30 F 0
158 LEE Kam Suen Kitty 16:37:09 F 31 F 0
159 TAM Chun Fung Sam 16:37:10 SEM M 0
160 KIM Sungik 16:41:49 M 0
161 MANKUS Michael 16:45:17 M 0
162 HO Chak Lam 16:51:48 Dream Chasing Action M 0
163 MAK Chun Hong 16:52:48 SEM M 0
164 CHOW Ming Ho 16:56:06 SEM M 0
165 BEE Hai Chun 16:56:10 M 0
166 TSOI Lukkwan 16:59:47 M 0
167 DAI Jianchao 17:01:42 SEM M 0
168 LI Kinson 17:01:51 M 0
169 LAW Tsun Fung 17:04:27 SEM M 0
170 TSZ CHUN Yung 17:05:54 SEM M 0
171 FAERNKVIST Mikael 17:06:34 M 0
172 M?CZKA Anna 17:07:29 F 32 F 0
173 ZHAO Jing 17:07:43 SEF F 33 F 0
174 DONGHAE Kim 17:11:53 M 0
175 KANDASAMY Kannan 17:12:09 M 0
176 HAYWARD Will 17:16:09 M 0
177 MANGILI VINCENT Michael 17:16:47 SEM M 0
178 CHAN Kwok Yui 17:17:09 M 0
179 LEE Chun Yin 17:17:22 M 0
180 YUM Eric 17:17:47 M 0
181 CHEN Xingke 17:18:19 SEM M 0
182 NGUYEN Quang 17:19:15 SEM Long Distance Runners M 0
183 LO Alan 17:19:26 M 0
184 MEJSNER Bartosz 17:21:15 M 0
185 CAMPBELL Job 17:23:11 M 0
186 ZHOU Shanshan 17:24:30 SEF F 34 F 0
187 CHAN Shuk Nga Suan 17:25:10 F 35 F 0
188 CHONG Ka Ning 17:25:52 M 0
189 CHIU Wai Yin 17:25:52 F 36 F 0
190 XIE Jinbin 17:26:57 M 0
191 XIE Wenfei 17:27:27 SEF F 37 F 0
192 WONG Kwai Hung 17:28:16 SEM M 0
193 HODSON James 17:28:44 SEM M 0
194 MAHACHOT Phitchanan 17:28:50 F 38 F 0
195 NIKOLCHEVA Boryana 17:30:00 SEF F 39 F 0
196 CHAN Lok Ming 17:31:13 SEM M 0
197 LAM Kashing 17:34:14 SEM M 0
198 WONG Chun Kit 17:34:14 SEM M 0
199 WONG Patrick 17:34:51 SEM M 0
200 WANG Shengli 17:37:52 M 0
201 SHEN Xiaoyang 17:39:03 SEM M 0
202 SHI Hongxia 17:39:03 F 40 F 0
203 FOUCART DAHMANE Julien 17:39:37 SEM M 0
204 ZHANG Xingru 17:41:01 SEM M 0
205 TSUI Ken 17:41:30 M 0
206 CHAU Keung On 17:42:03 M 0
207 LO King Yau Kurt 17:44:33 SEM M 0
208 LAI Ka Ling 17:44:58 F 41 F 0
209 KRIER Tim 17:46:29 M 0
210 WONG Lawrence 17:46:54 SEM M 0
211 WONG Ka Kit 17:47:12 SEM M 0
212 MCCULLOUGH Lauren 17:47:35 SEF F 42 F 0
213 KWOK Ka Chun 17:47:43 SEM EM Runner M 0
214 NG Choi Long 17:47:52 SEF F 43 F 0
215 PRATHANTHIP Naruphon 17:48:03 M 0
216 BESNUS Emmanuel 17:48:36 M 0
217 VAN EETVELT Ivan 17:51:07 M 0
218 COURY Jamil 17:51:16 SEM M 0
219 WANG Feng 17:54:07 M 0
220 LUK Hong 17:55:34 M 0
221 JIANG Liangjun 17:57:02 M 0
222 SIQIN Lv 17:57:03 SEF YMT F 44 F 0
223 SUGIYAMA Hirokazu 17:58:21 M 0
224 WANG Jiejun 18:00:26 SEF F 45 F 0
225 XU Kai 18:01:16 SEM M 0
226 ZHANG Baoping 18:02:09 ACRG M 0
227 LEUNG Kin Wai 18:02:39 Mountastic 4 M 0
228 CHAN Chun Fun 18:06:28 M 0
229 ISKANDAR Ivan 18:07:50 SEM Pola 86 M 0
230 ECKMANN Daniel 18:08:17 M 0
231 SAKAI Takashi 18:09:21 M 0
232 WANG Wenjun 18:09:27 SEM M 0
233 HASHIZUME Soshi 18:12:17 SEM M 0
234 HAO Liang 18:14:24 SEM M 0
235 YUNG Chris 18:14:28 Faithwalkers M 0
236 CHEUNG Kashing 18:14:55 M 0
237 PARK Eun Sook 18:15:18 F 46 F 0
238 NAKAGAWA Yoshinori 18:16:32 M 0
239 DENG Jiayu 18:17:54 F 47 F 0
240 LAWS ARBOGAST Meghan 18:19:55 Altra F 48 F 0
241 CHAN Kin Pong 18:21:10 SEM M 0
242 LI Jun 18:21:31 M 0
243 WONG Chishing Ray 18:22:04 M 0
244 LAM Ivan 18:25:00 SEM M 0
245 HART Stephen 18:26:38 SEM M 0
246 IP Kin Wai 18:26:41 SEM M 0
247 KUAN Calvin 18:26:49 SEM M 0
248 KWONG Chi Chun Rickie 18:28:40 Faithwalkers M 0
249 CHEUNG Chin Hang 18:29:08 M 0
250 RALCHEVA Aneta 18:30:40 F 49 F 0
251 DE MOT Bart 18:30:49 SEM M 0
252 VONG Manuel 18:30:49 SEM M 0
253 CHENG Tak Cheung 18:31:12 M 0
254 CANHAM Janine 18:32:35 WAA Ultra F 50 F 0
255 DEVLIN Mo 18:32:35 M 0
256 REID Robert 18:32:48 M 0
257 REAL Sergio 18:33:32 SEM M 0
258 RODRIGUES Emanuel 18:33:32 Trailman 100 Macau M 0
259 CHAN Wing Kin 18:34:34 M 0
260 CHEUNG Ho Chung 18:35:02 M 0
261 WANG Xiaodeng 18:35:29 SEM M 0
262 DOU Qin 18:36:56 F 51 F 0
263 FUNG Edith 18:38:29 SEF F 52 F 0
264 DUNDON Stephen 18:40:00 SEM MKRC M 0
265 LAU Ho Lan 18:40:15 SEM M 0
266 ZHONG Liu 18:40:25 M 0
267 YIP Joseph 18:40:59 M 0
268 LAW Wan Him 18:42:43 SEM M 0
269 CHUNG Kwong On 18:42:54 M 0
270 LAI Chun Ho 18:43:43 SEM M 0
271 MATTHIASDOTTIR PROPPE Halldora 18:43:56 Natturuhlaup F 53 F 0
272 WANG Yuning 18:44:06 F 54 F 0
273 ZHU Qiang 18:45:07 M 0
274 CHOI Felix 18:45:25 SEM M 0
275 XIE Fei 18:45:30 SEF F 55 F 0
276 LI Wai Leung 18:46:08 Life Fever M 0
277 LIU Yang 18:46:32 SEM M 0
278 ZHANG Xiaoxiao 18:46:32 SEF F 56 F 0
279 CHAN Kin Wa 18:46:57 M 0
280 GONG Du Bin 18:47:06 SEM M 0
281 YU Long Chai 18:48:36 SEM M 0
282 KWOK Man Ho 18:49:11 SEM M 0
283 LAM Kevin 18:51:02 M 0
284 CHIA Calvin Tze Hwee 18:51:55 M 0
285 HONG Xubing 18:53:16 SEM M 0
286 CHEN Zengbo 18:53:56 SEM M 0
287 LEUNG Wai Lung 18:55:55 M 0
288 YAU Ka Lok Gordon 18:55:59 SEM M 0
289 CHAN Chu Fung 18:55:59 SEM M 0
290 LAM Kui Wa 18:55:59 SEM M 0
291 XU Xiaohong 18:58:29 F 57 F 0
292 WONG Ka Ho Lawrence 18:58:53 SEM M 0
293 TSANG Chi Fung 18:58:53 SEM M 0
294 XU Guojin 18:59:12 M 0
295 BUTLER Kevin 19:01:03 SEM M 0
296 WONG Ming Kit 19:01:57 M 0
297 WONG Ka Yan 19:04:04 F 58 F 0
298 LEE Cheong Wan Kevin 19:10:28 M 0
299 TAO Ye 19:10:53 SEF F 59 F 0
300 ZENG Jian 19:10:53 M 0
301 GUAN Zhong 19:11:47 SEM crazy bitch M 0
302 CAMPOS Rowell Nisperos 19:11:56 Bandilang PINAS / Bandila M 0
303 HO Chi 19:13:32 M 0
304 LEIJDEKKERS Stefan 19:14:14 M 0
305 YE Honggang 19:14:44 M 0
306 ZHANG Jirong 19:17:19 M 0
307 WONG David 19:17:22 M 0
308 HILMARSDOTTIR Hafdis Gudrun 19:18:01 Inov8 Iceland F 60 F 0
309 NGAI Wa Luk 19:18:22 M 0
310 FAN Kui 19:19:13 SEM M 0
311 CUI Yibing 19:19:27 SEM M 0
312 PENG Feng 19:19:32 M 0
313 LI Changpeng 19:19:36 SEM M 0
314 WANG Jinglin 19:19:40 SEM M 0
315 LI Ka Tong 19:20:22 M 0
316 YUEN Chung Ming 19:22:35 M 0
317 KONG Shu Sum 19:22:50 M 0
318 CHEUNG Chuen Yi 19:23:51 SEM M 0
319 MOK Chi Pun 19:24:05 M 0
320 ZHENG Junyue 19:24:28 SEF F 61 F 0
321 SASAKI Naoko 19:24:53 F 62 F 0
322 KIERNAN Sigurour Hrafn 19:25:24 M 0
323 ZHOU Geng 19:25:43 SEM M 0
324 CUI Huarui 19:25:46 M 0
325 DICKSON Joshua 19:26:00 SEM M 0
326 LIU Fulin 19:27:43 M 0
327 HWANG Chung 19:28:50 M 0
328 HO Wing Yu 19:29:04 SEF F 63 F 0
329 LIU Karho 19:29:11 SEM M 0
330 CHAN Lap Yee 19:29:11 F 64 F 0
331 CHUI Chi Yuen 19:29:12 M 0
332 HUANG Jiapeng 19:29:37 SEM M 0
333 MAO Wenyu 19:29:56 SEM M 0
334 KANAKAKORN Suttipong 19:30:11 Intania Runner M 0
335 ZOU Wenbing 19:30:26 SEM M 0
336 TSANG Wing Hing 19:30:52 M 0
337 YIM Yik Him 19:31:02 SEM M 0
338 JI Guangkai 19:31:27 SEM M 0
339 MORIYA Masao 19:31:54 M 0
340 MORIYA Mitsuo 19:31:54 M 0
341 QIN Xueyan 19:32:07 SEF F 65 F 0
342 MA Rongfeng 19:32:15 SEM M 0
343 LEE Hongkyu 19:32:22 M 0
344 LI Yangyang 19:33:05 SEM M 0
345 FAGUO Geng 19:33:08 SEM M 0
346 TSANG Charmaine 19:33:36 F 66 F 0
347 TATE Keven 19:34:27 M 0
348 LOO Wai Kit 19:34:43 M 0
349 LI Shuyi 19:36:41 SEF F 67 F 0
350 PENG Hongbin 19:36:59 SEM M 0
351 SWEE Hsien Ming 19:37:27 M 0
352 CHEUNG Chiu Ying 19:37:28 SEF F 68 F 0
353 FANG Chen 19:37:32 F 69 F 0
354 TSE Kar Chun 19:37:46 M 0
355 CHEANG Reuben 19:38:14 M 0
356 ZHANG Bochao 19:39:19 SEM M 0
357 LEK Evelyn 19:39:33 F 70 F 0
358 GETZ Lisa 19:39:50 SEF F 71 F 0
359 WONG Chun Hong 19:40:00 TrailTalkers M 0
360 NG Kwai Fuk Jessica 19:40:25 SEF F 72 F 0
361 WONG Iam Tong Derek 19:40:41 M 0
362 KWAN Wing Yip 19:40:49 SEM M 0
363 JUN Shen 19:41:58 SEM LP Support M 0
364 ZHAO Weiren 19:42:09 SEM M 0
365 WONG Edward Ho Chung 19:43:30 M 0
366 YU Jiahao 19:43:43 M 0
367 BURAPAVONG Witchawat 19:43:43 SEM Intania Runner M 0
368 LI Haihua 19:47:30 SEM M 0
369 WANG Jian 19:48:16 M 0
370 CHAN Ka Chi Margaret 19:49:06 F 73 F 0
371 SHING Alvin 19:50:12 M 0
372 LIU Ka Lok Calvin 19:50:12 M 0
373 WONG Kwok Chu 19:50:12 M 0
374 FUNG James 19:50:43 SEM M 0
375 CHOW Yiu Cho 19:51:29 M 0
376 NG Kingho 19:53:16 SEM M 0
377 LUO Jinglan 19:53:24 SEF F 74 F 0
378 CHEUNG Kwok Kwan 19:54:10 M 0
379 CHOI Kwok Keung Juillet 19:54:47 M 0
380 HAIKUN Zhang 19:54:53 SEM M 0
381 NG Wingkay 19:56:13 M 0
382 WEI Zhigang 19:59:52 M 0
383 YUEN Chi Chung 20:00:52 M 0
384 SAPANKAEW Tawatchai 20:01:47 SEM M 0
385 ARIWI John 20:03:54 M 0
386 DAICHI Yanamoto 20:08:57 SEM M 0
387 LEE Mansik 20:10:23 M 0
388 GONG Jongsook 20:15:45 F 75 F 0
389 IGUSA Tom 20:16:01 M 0
390 FEARNSIDE Ian 20:16:02 M 0
391 BAUDET Francis 20:16:29 M 0
392 OLSEN Kim 20:17:39 M 0
393 CAPILI Aleksis 20:18:26 M 0
394 VAN RYSWYCK Michael 20:19:20 SEM M 0
395 HE Jian 20:24:15 SEM M 0
396 YIU Chi Yuen 20:26:04 M 0
397 ROPER Richard 20:26:43 M 0
398 RICHARD Valerie 20:26:47 SEF F 76 F 0
399 CHAN Wai Hon 20:28:33 M 0
400 LI Wai Keung 20:33:25 M 0
401 MENDIZABAL Ramon 20:35:03 M 0
402 CHEN Zhencheng 20:35:52 SEM M 0
403 BONNAUD Antoine 20:36:37 M 0
404 CHAN Kam On Andy 20:37:14 M 0
405 CHAN Po Ming 20:40:24 ThePeakHunter M 0
406 LOHTRAKULCHAI Jirapong 20:40:44 PTTEP Runners M 0
407 XU Jing Zhou 20:41:57 SEM M 0
408 SUZUKI Takahiro 20:42:09 M 0
409 OHNO Takuhei 20:43:09 M 0
410 BUCHAN Alexander 20:43:18 M 0
411 CHEUNG Wilson 20:44:37 M 0
412 CHOI Fu Wa 20:45:27 M 0
413 SKOBIERSKI Michael 20:46:50 SEM M 0
414 SAINT PE Emilie 20:46:50 SEF F 77 F 0
415 KONG Lai Shun Nelson 20:48:26 M 0
416 LIANG Gao 20:49:32 SEM M 0
417 TSUI Stella 20:50:04 SEF F 78 F 0
418 CAO Jianzhong 20:50:42 M 0
419 ZHOU Guojun 20:51:04 M 0
420 LAM Tsun Kei 20:51:20 M 0
421 LAU Chi Ho 20:52:40 SEM M 0
422 CHU Wan Yan Gloria 20:54:03 F 79 F 0
423 LIU Ka Lun 20:54:17 SEM M 0
424 WAN Chi Wai 20:55:49 M 0
425 NINNEMANN Maurice 20:55:55 SEM M 0
426 TAKITA Toshikazu 20:56:30 M 0
427 HU Changqiang 20:56:43 M 0
428 KWAN Yat Fai 20:57:23 M 0
429 LI Renli 20:58:33 M 0
430 ZHANG Junpeng 20:58:41 M 0
431 TSUI Kin Chung 21:01:16 M 0
432 FONG Man_lun 21:02:15 M 0
433 LAM Jeff 21:02:36 SEM M 0
434 STROGANOV Ivan 21:03:03 SEM M 0
435 YAU Yin Hong 21:03:10 M 0
436 NAKANO Tetsuhiro 21:05:36 M 0
437 ZENG Shihui 21:06:12 SEM M 0
438 WIBOONKIJ ARPHAKUL Chaiyaporn 21:06:39 SEM M 0
439 LIU Lu 21:07:14 SEM M 0
440 BRANN Erika 21:07:57 F 80 F 0
441 CHAO Yang Sheng 21:08:23 SEM M 0
442 YUEN Yuk Tong Tommy 21:08:58 TRab M 0
443 ARTJAMPA Jaruek 21:09:37 M 0
444 HANSAKUNATHAI Sathapat 21:09:38 M 0
445 ANONUEVO Jonas 21:09:57 M 0
446 FESALBON Anthony 21:09:57 M 0
447 YE Jiexiang 21:12:13 F 81 F 0
448 HUANG Xuping 21:12:23 SEM M 0
449 SHEN Ye 21:13:14 M 0
450 LEUNG Ching Man 21:13:56 SEF F 82 F 0
451 CHAN Yiu Keong 21:13:57 M 0
452 LIU Wei 21:14:17 SEM M 0
453 FURLAN Davide 21:14:23 M 0
454 SASAKI Yuji 21:15:00 M 0
455 LAU Chi Yin 21:15:06 SEM M 0
456 HE Lan 21:15:29 SEF F 83 F 0
457 KO Yiu Cheong 21:15:34 M 0
458 LEE Oscar 21:16:21 M 0
459 LU Shuyi 21:16:32 SEF F 84 F 0
460 KAPELI Katannya 21:17:56 SEF F 85 F 0
461 BULL Richard 21:17:56 M 0
462 KIRIHATA Mariko 21:18:24 F 86 F 0
463 HUNG Kin Yik 21:19:10 SEM M 0
464 ZHU Shubiao 21:21:12 SEM M 0
465 LIU Yige 21:21:16 SEM M 0
466 TAKAHASHI Tsutomu 21:23:28 M 0
467 FUNG Yat Yin 21:23:35 SEM M 0
468 AGU Valentina 21:23:51 SEF F 87 F 0
469 OREGLIA Diego 21:23:52 M 0
470 HO Leon 21:24:35 SEM M 0
471 CHENG Hong 21:24:39 M 0
472 NG Chun Hung 21:25:05 M 0
473 FUNG Yuen Kwan 21:25:05 F 88 F 0
474 JOSEPHINE Josephine 21:25:32 F 89 F 0
475 LOWDE Stephen 21:26:04 M 0
476 TSE King Pang 21:27:18 M 0
477 CHAN Kin Man Jason 21:27:18 SEM M 0
478 LAI Frances Pui Yee 21:29:42 F 90 F 0
479 LUI Po Ying 21:30:22 M 0
480 PUONG Jean Luc 21:30:40 SEM M 0
481 GAO Ting 21:30:53 SEF Kailas / Typhoon X F 91 F 0
482 HUANG Zexin 21:31:57 SEM M 0
483 KONG Kim Wan 21:32:02 M 0
484 MARTIN David Michael 21:32:25 M 0
485 LAW Wai Man 21:32:30 M 0
486 CHAU Chui Wan 21:32:52 SEF F 92 F 0
487 LIU Wai Kam 21:34:41 F 93 F 0
488 FOO Chee Guan 21:35:19 M 0
489 LO Yin_ngor 21:35:51 F 94 F 0
490 YAZAMAIDI Neema 21:36:19 SEM Runnershigh / SMIC / Shan M 0
491 AN Jangsu 21:37:46 M 0
492 KINLOUGH Elaine 21:37:48 F 95 F 0
493 LI Lichao 21:37:51 SEM M 0
494 YEOH Chee Meng (freddy) 21:39:13 M 0
495 XIANG Ji 21:41:20 M 0
496 TSANG Michael 21:41:31 M 0
497 MCKINNON Iolaire 21:42:14 M 0
498 NGUI Joseph 21:42:15 M 0
499 LEUNG Chiwai 21:42:42 M 0
500 KAN Elco 21:44:43 F 96 F 0


ReferencementCe site est listé dans la catégorie Sport : Sports extrêmes Dictionnaire
| Accueil | La Réunion  Vue du ciel | Météo | Cyclones | Volcan | Cirques de Mafate , Cilaos , Salazie | Photos Randonnées | Randonnées Réunion: Randos Espiègle , Courses montagne | Diagonale des Fous |  Marathon des Sables | Voyages Les stats du site | Fonds écran | Plan du site | Blog de runraid | Galerie photos Sport Réunion |